Date String (YYYY-MM-DD hh:mm:ss) UTC,Instrument flags,Ambient pressure (hPa),Sample flow (lpm),Bypass flow (lpm),Sample temperature (°C),Ambient temperature (°C),ASC tube jacket temperature (°C),LED temperature (°C),Box temperature (°C),Sample RH (%),Span deviation,Mass concentration (μg/m³),Mass concentration (μg/m³),Mass concentration (μg/m³)
DateTimeUTC,F1_M11,P_M11,Q1_M11,Q2_M11,T1_M11,T2_M11,T3_M11,T4_M11,T5_M11,U1_M11,ZSPAN_M11,X0_M11,X2_M11,X1_M11
2022-09-16 13:00:00,,0826.8,5.00,0.00,30.1,28.5,00.0,38.9,31.9,24.3,0000.5,0008.08,0004.14,0003.68
2022-09-16 13:01:00,,0826.7,5.00,0.00,30.1,28.5,00.0,38.9,31.8,24.4,0000.8,0008.26,0004.19,0003.70
2022-09-16 13:02:00,,0826.7,4.99,0.00,30.1,28.5,00.0,38.9,31.9,24.3,0000.4,0008.05,0004.24,0003.72
2022-09-16 13:03:00,,0826.7,5.00,0.00,30.1,28.5,00.0,38.9,31.9,24.1,0000.2,0007.85,0004.26,0003.73
2022-09-16 13:04:00,,0826.7,4.99,0.00,30.1,28.5,00.0,38.9,31.8,23.9,0000.5,0007.74,0004.22,0003.73
2022-09-16 13:05:00,,0826.8,5.01,0.00,30.1,28.5,00.0,38.9,31.8,23.8,0000.1,0007.73,0004.24,0003.72
2022-09-16 13:06:00,,0826.8,4.99,0.00,30.1,28.5,00.0,38.9,31.9,24.1,0000.1,0007.75,0004.26,0003.73
2022-09-16 13:07:00,,0826.8,4.99,0.00,30.1,28.5,00.0,38.9,31.9,23.7,0000.0,0007.81,0004.26,0003.73
2022-09-16 13:08:00,,0826.8,5.01,0.00,30.1,28.5,00.0,38.9,31.9,23.7,0000.0,0008.03,0004.30,0003.74
2022-09-16 13:09:00,,0826.8,4.99,0.00,30.1,28.5,00.0,38.9,31.9,23.6,0000.0,0008.20,0004.32,0003.73
2022-09-16 13:10:00,,0826.8,5.00,0.00,30.1,28.5,00.0,38.9,31.9,23.4,0000.0,0008.35,0004.33,0003.72
2022-09-16 13:11:00,,0826.9,4.99,0.00,30.1,28.5,00.0,38.9,31.9,23.3,0000.0,0008.43,0004.30,0003.70
2022-09-16 13:12:00,,0827.2,5.00,0.00,30.1,28.5,00.0,38.9,31.9,23.7,0000.0,0008.34,0004.29,0003.70
2022-09-16 13:13:00,,0827.0,5.01,0.00,30.1,28.5,00.0,38.9,31.9,24.4,0000.0,0008.36,0004.30,0003.72
2022-09-16 13:14:00,,0827.2,5.00,0.00,30.1,28.5,00.0,38.9,31.9,24.4,0000.1,0008.40,0004.31,0003.73
2022-09-16 13:15:00,,0827.0,4.99,0.00,30.1,28.6,00.0,38.9,31.9,24.4,0000.8,0008.61,0004.36,0003.75
2022-09-16 13:16:00,,0826.8,5.01,0.00,30.1,28.6,00.0,38.9,31.9,24.5,0000.8,0008.97,0004.40,0003.79
2022-09-16 13:17:00,,0826.8,4.99,0.00,30.1,28.6,00.0,38.9,31.9,24.7,0000.9,0009.93,0004.42,0003.81
2022-09-16 13:18:00,,0826.8,5.00,0.00,30.1,28.6,00.0,38.9,31.9,24.9,0000.7,0010.36,0004.48,0003.84
2022-09-16 13:19:00,,0826.8,5.00,0.00,30.1,28.6,00.0,38.9,31.9,25.0,0000.6,0010.90,0004.56,0003.89
2022-09-16 13:20:00,,0826.8,4.99,0.00,30.1,28.6,00.0,38.9,31.9,25.1,0000.7,0010.75,0004.58,0003.93
2022-09-16 13:21:00,,0826.8,5.01,0.00,30.1,28.6,00.0,38.9,31.9,24.9,0000.9,0010.50,0004.57,0003.97
2022-09-16 13:22:00,,0826.8,4.99,0.00,30.1,28.6,00.0,38.9,31.9,24.7,0000.9,0010.48,0004.60,0004.01
2022-09-16 13:23:00,,0826.7,5.01,0.00,30.1,28.5,00.0,38.9,31.8,24.9,0001.4,0010.44,0004.63,0004.04
2022-09-16 13:24:00,,0826.8,4.99,0.00,30.1,28.6,00.0,38.9,31.9,25.3,0001.0,0010.54,0004.67,0004.07
2022-09-16 13:25:00,,0826.8,5.01,0.00,30.1,28.6,00.0,38.9,31.9,25.5,0001.0,0010.87,0004.74,0004.11
2022-09-16 13:26:00,,0826.8,4.99,0.00,30.1,28.6,00.0,38.9,31.9,25.5,0001.0,0011.06,0004.83,0004.15
2022-09-16 13:27:00,,0826.8,5.01,0.00,30.1,28.5,00.0,38.9,31.9,25.6,0001.3,0010.72,0004.85,0004.18
2022-09-16 13:28:00,,0826.8,4.99,0.00,30.1,28.6,00.0,38.9,31.9,25.7,0001.5,0009.93,0004.91,0004.22
2022-09-16 13:29:00,,0826.9,5.00,0.00,30.1,28.6,00.0,38.9,31.9,25.7,0001.1,0009.60,0004.90,0004.24
2022-09-16 13:30:00,,0827.0,4.99,0.00,30.1,28.6,00.0,38.9,31.9,25.7,0000.8,0009.33,0004.92,0004.27
2022-09-16 13:31:00,,0827.1,5.01,0.00,30.1,28.6,00.0,38.9,31.9,25.7,0000.5,0009.64,0004.99,0004.29
2022-09-16 13:32:00,,0827.0,4.99,0.00,30.1,28.7,00.0,38.9,31.9,25.7,0000.3,0010.19,0005.04,0004.32
2022-09-16 13:33:00,,0826.8,5.01,0.00,30.1,28.7,00.0,38.9,31.9,25.6,0000.0,0010.22,0005.07,0004.35
2022-09-16 13:34:00,,0826.8,5.00,0.00,30.1,28.7,00.0,38.9,31.9,25.7,0000.1,0010.27,0005.15,0004.40
2022-09-16 13:35:00,,0826.8,5.00,0.00,30.1,28.7,00.0,38.9,31.9,25.8,0000.0,0010.20,0005.16,0004.41
2022-09-16 13:36:00,,0826.8,5.00,0.00,30.1,28.7,00.0,38.9,31.9,25.8,-000.1,0009.90,0005.13,0004.41
2022-09-16 13:37:00,,0826.8,5.00,0.00,30.2,28.7,00.0,38.9,32.0,25.8,-000.5,0009.61,0005.06,0004.40
2022-09-16 13:38:00,,0826.8,4.99,0.00,30.2,28.7,00.0,38.9,32.0,26.2,-000.5,0009.59,0005.02,0004.37
2022-09-16 13:39:00,,0826.8,5.01,0.00,30.2,28.7,00.0,38.9,32.0,26.3,-000.3,0009.69,0004.96,0004.33
2022-09-16 13:40:00,,0826.8,5.00,0.00,30.2,28.7,00.0,39.0,32.0,26.3,0000.1,0009.57,0004.93,0004.29
2022-09-16 13:41:00,,0826.8,5.00,0.00,30.2,28.7,00.0,38.9,32.0,26.3,0000.4,0009.19,0004.88,0004.25
2022-09-16 13:42:00,,0826.7,5.01,0.00,30.2,28.7,00.0,38.9,32.0,26.6,0001.3,0008.98,0004.79,0004.21
2022-09-16 13:43:00,,0826.8,4.99,0.00,30.2,28.7,00.0,38.9,32.0,26.6,0001.3,0008.47,0004.75,0004.18
2022-09-16 13:44:00,,0826.7,5.01,0.00,30.2,28.7,00.0,38.9,32.0,26.3,0001.6,0009.01,0004.76,0004.16
2022-09-16 13:45:00,,0826.7,5.00,0.00,30.2,28.7,00.0,38.9,32.0,26.5,0001.7,0009.62,0004.69,0004.13
2022-09-16 13:46:00,,0826.8,5.00,0.00,30.2,28.7,00.0,38.9,32.0,26.3,0002.0,0010.03,0004.68,0004.12
2022-09-16 13:47:00,,0826.7,5.01,0.00,30.2,28.7,00.0,39.0,31.9,26.5,0002.3,0010.01,0004.68,0004.10
2022-09-16 13:48:00,,0826.7,4.98,0.00,30.2,28.7,00.0,39.0,31.9,26.6,0002.5,0010.00,0004.69,0004.09
2022-09-16 13:49:00,,0826.8,5.01,0.00,30.2,28.7,00.0,39.0,32.0,26.8,0002.4,0010.01,0004.70,0004.11
2022-09-16 13:50:00,,0826.8,4.99,0.00,30.2,28.7,00.0,39.0,32.0,27.0,0002.5,0010.76,0004.73,0004.13
2022-09-16 13:51:00,,0826.8,5.01,0.00,30.2,28.8,00.0,39.0,32.0,27.1,0002.4,0011.29,0004.75,0004.15
2022-09-16 13:52:00,,0826.8,4.99,0.00,30.2,28.8,00.0,39.0,32.0,27.3,0002.3,0011.75,0004.74,0004.15
2022-09-16 13:53:00,,0826.8,5.01,0.00,30.2,28.8,00.0,39.0,32.0,26.4,0001.9,0011.72,0004.75,0004.16
2022-09-16 13:54:00,,0826.8,4.99,0.00,30.3,28.8,00.0,39.0,32.0,26.0,0001.9,0011.68,0004.74,0004.15
2022-09-16 13:55:00,,0826.7,5.00,0.00,30.3,28.8,00.0,39.0,32.1,26.6,0001.9,0011.26,0004.78,0004.14
2022-09-16 13:56:00,,0826.8,5.00,0.00,30.3,28.8,00.0,39.0,32.0,27.3,0001.5,0010.57,0004.79,0004.14
2022-09-16 13:57:00,,0826.8,4.99,0.00,30.3,28.8,00.0,39.0,32.1,27.3,0001.4,0010.16,0004.77,0004.12
2022-09-16 13:58:00,,0826.8,5.01,0.00,30.3,28.8,00.0,39.0,32.1,26.6,0001.3,0010.07,0004.74,0004.11
2022-09-16 13:59:00,,0826.8,4.98,0.00,30.3,28.9,00.0,39.0,32.1,27.1,0001.6,0010.18,0004.74,0004.09
